Location: New Town
(33.2710°N, 90.7534°W)
Time: 13:43:52
(UTC+00:00)

Explorer 11/Cluster Stage 4 - Pass Details

Date: 22 May 2021
Orbit: 467 x 1257 km, 28.8° (Epoch: 14 June)

Event Time Altitude Azimuth Distance (km) Brightness Sun altitude
Rises 03:52:18 0° 272° (W) 4,033 10.7 -28.3°
Reaches altitude 10° 03:55:25 10° 262° (W) 3,142 9.9 -28.7°
Enters shadow 04:01:10 30° 218° (SW) 2,070 8.5 -29.3°
Maximum altitude 04:02:14 31° 204° (SSW) 2,038 - -29.4°
Drops below altitude 10° 04:09:10 10° 146° (SSE) 3,191 - -30.2°
Sets 04:12:22 0° 137° (SE) 4,104 - -30.5°
